Regional Weather Roundup
Issued by NWS

Home | Current Version | Previous Version | Graphics & Text | Print | Product List | Glossary On
Versions: 1 2 3 4 5 6 7 8 9 10 11 12 13 14 15 16 17 18 19 20 21 22 23 24 25 26 27 28 29 30 31 32 33 34 35 36 37 38 39 40 41 42 43 44 45 46 47 48 49 50
118
ASUS44 KMEG 280600
RWRTN
TENNESSEE HOURLY STATE WEATHER ROUNDUP
NATIONAL WEATHER SERVICE MEMPHIS TN
100 AM CDT THU JUL 28 2016

TNZ002-004-019-021-049-052-054-088>092-280700-
WEST TENNESSEE

CITY           SKY/WX    TMP DP  RH WIND       PRES   REMARKS
MEMPHIS INTL   LGT RAIN  78  74  87 SW5       29.92R
NWS MEMPHIS      N/A     75 N/A N/A MISG        N/A
JACKSON        CLOUDY    77  76  96 S3        29.93F
DYERSBURG      CLOUDY    75  72  88 CALM      29.93S
UNION CITY     CLEAR     73  73 100 SE5       29.91F
PARIS          MOCLDY    72  72 100 E5        29.94F
LEXINGTON      CLOUDY    77  73  88 SW7       29.94F
$$

TNZ008-025-027-028-033-062-065-066-280700-
NORTH MIDDLE TENNESSEE

CITY           SKY/WX    TMP DP  RH WIND       PRES   REMARKS
NASHVILLE      CLOUDY    81  71  71 S5        29.96S
CLARKSVILLE    LGT RAIN  72  70  93 NE5       29.95F
COOKEVILLE     PTCLDY    75  72  88 SW7       29.99S
CROSSVILLE     MOCLDY    74  69  85 VRB3      30.05F
$$

TNZ061-075-076-078-094-096-097-280700-
SOUTH MIDDLE TENNESSEE

CITY           SKY/WX    TMP DP  RH WIND       PRES   REMARKS
TULLAHOMA      CLOUDY    75  72  88 SW3       30.02S
WINCHESTER     MOCLDY    77  72  83 SE3       30.01F
MCMINNVILLE    MOCLDY    79  73  83 SW8       30.01S
COLUMBIA       CLOUDY    79  79 100 S7        29.96F
SHELBYVILLE    CLOUDY    79  73  83 S8        30.00S
$$

TNZ017-018-042-046-047-280700-
NORTHEAST TENNESSEE

CITY           SKY/WX    TMP DP  RH WIND       PRES   REMARKS
TRI CITIES     TSTM      73  70  90 W10       30.07R
$$

TNZ012-013-036-069-073-074-280700-
CENTRAL EAST TENNESSEE

CITY           SKY/WX    TMP DP  RH WIND       PRES   REMARKS
KNOXVILLE      CLOUDY    81  70  69 SW12      30.00F
OAK RIDGE      MOCLDY    82  69  64 CALM      30.01F
GATLINBURG     PTCLDY    82  66  57 SW5       30.00S
$$

TNZ083-085-099-280700-
SOUTHEAST TENNESSEE

CITY           SKY/WX    TMP DP  RH WIND       PRES   REMARKS
CHATTANOOGA    MOCLDY    80  69  69 S5        30.02S
$$

SKY/WX REPORTED AS FAIR MEANS FEW OR NO CLOUDS BELOW
12 THOUSAND FEET.





USA.gov is the U.S. government's official web portal to all federal, state and local government web resources and services.